GFSNE_prec_cthk_000.txt.gz
RH
86 94 88 86 80 82 88 90 90 87 89 93 87 87 78 75 78 70 71 67 60 55 54 51 46 46 44 41 38 39 40 39 42 46 52 61 62 63
92 93 94 92 92 90 92 92 94 93 90 86 83 83 80 75 78 73 69 64 59 54 46 49 49 48 47 45 43 39 38 39 36 36 43 50 63 66
92 90 86 85 85 83 80 79 79 78 75 71 75 73 71 70 67 66 68 67 67 61 52 42 43 45 48 48 47 43 40 38 39 36 35 41 50 64
88 85 81 76 70 67 68 71 75 73 70 68 70 66 61 62 62 63 61 60 60 58 53 44 38 38 43 44 48 48 47 45 42 41 38 35 39 47
89 86 80 74 70 69 69 68 69 69 66 63 61 60 57 56 55 55 55 54 52 49 49 48 43 36 32 34 38 40 45 48 45 46 43 38 37 40
81 76 72 69 69 68 66 63 59 55 54 55 53 51 50 50 50 50 50 50 49 49 48 46 45 43 39 35 32 34 38 39 46 47 46 43 40 38
71 69 67 66 58 54 52 49 47 46 46 51 52 49 47 49 51 50 50 50 48 52 50 46 45 43 40 34 31 30 30 35 38 45 47 47 44 41
59 59 55 54 52 46 43 39 38 38 41 46 46 44 44 48 53 54 54 53 50 51 50 46 46 46 44 44 43 38 34 29 33 36 41 46 44 44
47 50 49 47 45 46 45 43 39 39 41 45 50 54 59 67 71 69 68 65 62 61 61 56 57 51 47 45 43 36 33 29 29 32 37 40 43 44
50 51 50 48 46 45 46 45 46 51 55 62 66 72 75 79 80 80 79 77 75 73 74 69 66 60 57 51 44 40 34 27 28 29 33 40 46 50
56 54 52 49 49 50 51 54 57 63 72 77 80 82 87 91 94 94 90 89 82 81 82 80 76 72 63 54 51 45 39 34 27 31 34 40 48 54
57 58 56 56 54 57 60 65 71 79 84 89 88 90 95 96 95 95 97 96 96 93 93 88 85 85 78 62 55 48 42 34 29 26 31 38 47 53
65 65 63 60 63 70 75 78 82 86 85 84 85 86 89 95 99 99 99 99 98 97 96 95 90 88 89 80 72 63 54 47 39 30 28 33 48 52
71 71 72 77 83 84 85 87 89 84 83 84 86 89 92 92 93 95 98 98 98 97 98 94 88 89 93 93 81 75 70 62 52 45 36 33 45 53
84 91 96 94 92 95 97 91 85 86 86 86 86 90 95 96 96 94 96 95 96 98 99 97 91 92 91 98 95 86 80 75 65 58 55 49 45 51
99 99 98 98 98 98 95 88 86 82 80 81 84 85 87 89 94 95 94 96 98 99 97 96 95 98 99 98 99 96 88 83 78 72 67 64 60 61
99 99 98 98 99 97 88 84 80 76 76 77 80 81 82 82 83 83 86 91 93 95 98 98 98 98 98 98 98 99 96 89 86 84 80 72 66 60
99 98 98 98 99 96 92 87 80 75 73 75 77 79 79 77 75 69 68 73 76 79 89 98 98 98 98 95 94 95 97 98 96 93 90 87 74 63
98 98 98 98 99 99 96 92 87 81 77 76 75 75 75 72 71 68 73 75 81 83 86 89 98 98 99 99 98 97 97 99 98 98 97 89 90 74
98 98 98 98 90 88 92 92 89 86 80 77 76 74 72 69 69 72 74 76 78 85 92 94 94 96 99 99 99 96 94 96 98 97 97 96 92 90
98 98 94 79 69 65 65 73 78 80 81 79 74 74 73 72 69 67 70 73 75 77 79 84 91 94 96 96 96 96 94 93 93 96 96 95 95 94
93 89 79 73 66 59 54 50 48 51 58 67 72 72 72 72 72 70 69 67 69 71 75 75 78 82 86 90 90 89 90 90 91 92 93 96 97 98
79 76 76 68 66 62 61 57 52 50 47 44 50 64 68 68 71 72 71 72 73 73 72 74 77 73 74 78 82 85 88 90 89 90 93 94 94 98

GFSNE_prec_cthk_003.txt.gz
RH
78 86 87 87 89 93 95 93 92 90 86 82 96 97 94 91 84 75 72 76 68 58 56 58 55 52 48 44 40 36 35 38 43 47 49 49 52 60
89 95 95 91 90 89 93 95 96 95 92 92 84 87 88 88 89 84 87 79 73 69 66 64 59 55 52 50 45 40 38 36 35 36 41 43 45 49
96 94 91 90 86 83 81 83 85 90 82 79 85 85 84 85 86 88 83 84 83 71 64 62 53 49 50 50 47 43 40 37 35 34 33 36 38 40
96 96 94 94 91 88 85 81 79 79 81 75 81 84 85 84 81 82 79 79 77 75 69 60 63 53 43 44 44 44 41 36 35 37 36 34 35 34
90 91 91 91 88 86 86 86 87 85 84 81 79 77 77 76 76 75 74 72 68 70 68 61 55 57 51 39 33 36 34 36 34 35 35 37 38 38
68 72 74 77 77 76 75 77 81 80 78 74 69 67 65 63 64 64 63 63 62 63 62 58 51 46 49 48 36 28 27 28 32 36 35 37 39 42
42 48 51 56 57 57 63 63 64 65 64 65 62 61 65 64 65 66 64 63 63 63 64 61 60 60 50 45 41 32 24 20 20 27 30 33 38 41
45 47 50 53 56 54 51 50 50 52 56 55 51 53 53 56 57 55 58 57 56 56 56 55 59 59 55 58 61 53 42 33 24 21 23 28 31 37
53 57 57 55 54 52 51 51 54 49 47 44 43 40 42 42 47 52 53 57 57 60 61 57 62 63 55 52 51 51 49 48 39 31 27 25 28 32
68 67 63 59 58 58 55 52 48 46 47 48 47 45 49 54 60 64 67 68 67 68 71 65 63 60 62 60 55 50 50 48 45 35 31 27 27 28
74 73 72 63 54 50 51 50 49 49 54 56 57 59 65 73 79 83 82 83 79 77 78 75 71 67 69 60 60 56 49 45 45 41 34 28 25 24
78 80 74 67 64 59 56 56 55 58 67 71 75 80 87 86 88 90 93 93 93 91 92 89 82 78 74 70 68 62 60 51 46 43 40 37 32 28
91 87 80 71 69 66 63 62 70 77 79 83 88 87 85 86 87 91 93 96 95 93 95 96 93 88 83 78 74 76 79 71 59 52 45 37 33 32
88 85 81 77 78 79 81 85 86 85 87 88 86 86 88 91 93 94 96 96 97 98 98 97 91 90 90 90 86 84 83 80 72 64 52 48 40 30
99 98 99 98 97 95 93 90 91 90 88 86 86 86 85 86 89 92 94 95 94 96 94 96 95 94 97 92 89 87 91 91 88 72 64 56 49 41
99 99 99 99 99 99 98 94 90 86 82 81 82 82 82 83 86 88 89 92 95 95 98 96 95 95 95 93 90 87 90 94 95 80 73 67 66 63
99 99 99 98 99 99 95 91 85 78 78 79 79 82 82 82 82 80 76 73 74 81 93 98 97 97 96 97 95 93 94 95 98 89 84 80 75 70
99 99 99 99 99 99 96 88 80 77 76 78 78 80 82 81 79 74 70 72 74 76 79 78 95 98 97 94 94 95 96 96 97 96 91 87 86 83
99 99 99 98 97 99 97 94 88 83 79 78 78 77 77 75 71 68 69 74 78 81 84 87 88 97 99 98 96 95 96 97 97 96 95 93 93 92
98 99 95 80 76 77 84 90 89 85 83 80 78 76 75 72 70 67 67 70 73 78 80 84 90 92 95 98 99 99 99 99 97 98 98 97 95 94
99 96 84 75 67 59 55 60 64 69 78 81 78 76 76 74 71 68 66 67 70 72 76 78 78 84 90 92 94 95 94 96 95 96 97 98 98 97
89 88 79 73 71 68 64 62 59 55 54 61 73 73 74 75 74 72 69 69 68 68 66 69 74 72 76 82 86 86 86 87 88 90 90 91 93 94
82 79 80 77 72 64 60 58 54 52 50 47 50 59 69 70 71 71 72 73 72 72 72 72 70 71 71 68 72 76 79 81 82 83 85 86 87 89

GFSNE_prec_cthk_006.txt.gz
RH
68 71 72 74 73 76 79 84 90 86 82 86 84 81 78 94 95 98 97 96 86 78 67 59 60 54 53 54 53 47 43 42 41 42 48 53 53 52
85 92 95 93 91 92 92 90 87 82 72 80 85 82 93 95 97 97 96 97 88 84 78 70 68 64 63 56 56 56 51 45 42 40 39 40 46 51
90 96 97 98 98 98 98 95 89 86 78 71 74 83 86 90 92 93 94 94 91 82 77 69 65 67 67 65 60 57 57 53 47 43 40 37 35 38
82 84 83 85 89 93 95 96 94 91 87 78 71 69 75 83 86 89 91 91 93 85 78 76 69 65 62 58 54 58 56 55 52 47 43 38 36 33
42 39 39 56 59 64 64 74 83 89 89 86 82 76 70 71 74 80 85 88 87 87 79 73 69 65 66 61 53 47 49 50 49 49 45 41 39 36
33 29 34 44 55 65 63 59 59 69 76 74 72 70 67 64 62 62 65 72 75 78 74 72 68 65 61 60 55 47 40 40 44 45 44 41 39 37
45 43 42 43 47 54 56 61 57 48 51 58 62 65 64 65 69 77 79 78 74 75 73 65 67 69 65 59 56 54 45 38 32 31 35 38 38 36
64 60 56 53 54 63 64 59 55 51 44 47 49 54 59 61 64 68 71 71 71 67 64 59 63 57 56 61 61 62 55 46 38 35 29 27 28 31
69 68 68 71 76 75 71 63 60 54 53 53 55 50 48 46 49 52 54 58 61 63 59 56 57 57 60 62 67 62 57 55 49 41 35 33 29 25
77 75 74 72 76 80 72 62 59 58 55 52 52 45 50 48 49 46 46 46 46 49 58 64 62 60 61 59 60 60 60 56 55 54 47 41 35 28
90 94 93 83 76 78 70 61 54 50 49 50 51 52 54 54 53 54 54 62 64 69 73 73 70 66 64 59 56 54 55 54 52 50 51 52 45 38
95 94 91 90 90 86 77 70 63 59 57 53 55 57 61 66 72 78 84 84 83 82 86 87 82 81 74 66 63 61 58 57 54 51 48 46 45 43
97 95 90 87 83 79 75 70 65 61 61 64 68 72 75 81 85 84 85 88 90 87 91 94 89 91 87 84 76 72 69 68 67 66 61 55 48 45
99 99 99 99 96 90 87 84 81 80 80 81 83 86 89 87 87 89 90 92 93 94 95 96 92 94 93 90 90 89 86 81 80 75 71 67 58 51
99 99 99 99 99 99 97 90 88 88 90 91 89 88 88 86 85 86 86 87 90 93 97 98 98 95 95 92 92 92 91 89 85 81 79 76 69 56
99 99 99 99 99 99 99 99 98 95 90 88 85 84 83 83 82 81 82 82 83 84 89 93 96 98 95 94 95 95 94 91 90 92 89 80 75 66
99 99 98 98 98 99 98 94 90 86 84 82 82 81 81 81 80 79 76 70 66 67 68 73 83 97 97 96 96 95 92 91 90 91 90 91 88 83
99 98 98 98 98 99 94 88 85 83 80 79 79 78 79 79 78 74 71 70 73 73 77 79 80 79 89 95 93 89 91 92 91 91 91 89 96 93
99 99 98 86 82 91 98 92 88 85 82 80 78 76 76 75 72 69 67 70 74 75 77 79 82 84 88 94 96 97 94 93 92 91 93 93 92 97
99 99 92 78 69 65 64 70 78 87 87 83 79 78 77 74 72 69 68 70 71 72 74 75 78 80 85 89 95 96 98 98 98 98 98 96 96 97
91 95 85 79 76 73 68 66 65 59 71 81 80 78 78 76 75 72 69 68 69 69 69 71 73 77 80 83 86 88 93 97 97 97 98 98 98 98
80 82 88 82 75 70 64 63 60 56 55 58 69 75 73 75 77 76 76 74 72 71 69 67 67 70 72 72 75 79 83 83 85 90 93 96 96 96
74 74 78 76 74 72 67 60 56 51 50 49 49 54 60 67 70 70 70 70 71 73 74 73 72 73 73 73 72 69 70 75 78 80 82 83 86 89

GFSNE_prec_cthk_012.txt.gz
RH
47 54 63 70 79 81 85 90 95 92 75 70 75 82 76 67 65 61 68 59 63 54 59 82 97 98 92 83 78 69 58 51 51 50 47 47 52 60
40 40 46 48 53 60 65 73 84 93 93 84 76 82 85 82 79 72 69 74 80 72 62 80 89 95 98 98 91 82 69 62 52 47 46 46 47 52
46 49 52 53 52 48 43 46 54 62 78 78 83 80 79 85 84 76 71 76 90 91 82 82 93 97 98 98 98 96 85 75 68 55 49 48 49 49
44 46 49 50 45 42 42 38 33 32 42 48 65 74 74 78 82 81 75 73 82 94 98 98 98 97 96 92 91 91 91 84 75 65 54 47 50 49
52 51 50 47 42 42 43 44 44 42 42 43 42 47 62 65 68 79 80 74 77 85 94 98 96 98 98 94 89 86 83 80 72 65 62 54 53 53
51 50 49 52 55 56 59 59 58 57 55 54 48 47 51 44 46 60 71 77 76 78 86 91 97 92 94 93 85 81 78 76 74 68 64 57 54 52
45 59 67 68 67 70 76 76 75 74 71 69 62 57 52 44 40 41 60 65 69 70 77 85 84 90 90 88 81 79 75 72 68 66 64 62 58 56
63 68 71 71 72 79 83 83 87 85 82 82 76 69 60 52 48 41 46 60 60 59 58 73 82 84 84 82 79 75 72 68 60 56 56 53 58 58
67 73 74 81 86 86 89 91 90 89 84 82 80 75 67 57 53 46 43 52 57 59 57 57 65 70 75 78 71 66 59 57 58 57 53 50 52 56
76 81 85 92 95 96 97 94 92 97 91 80 75 73 65 54 51 47 43 48 54 57 61 55 55 59 65 62 61 59 55 56 52 53 53 50 46 49
82 89 96 96 98 100 98 94 90 93 92 83 80 74 63 56 54 52 48 52 54 52 58 60 56 51 50 49 48 49 50 49 45 46 46 50 48 48
89 93 96 98 99 99 99 98 88 91 89 80 73 67 60 55 54 49 48 54 55 52 54 63 55 58 55 50 51 51 50 52 53 53 53 53 52 52
90 93 96 98 99 98 99 98 90 85 79 76 70 64 58 53 52 51 51 55 56 51 57 60 56 59 58 52 53 55 56 57 59 61 61 58 55 55
93 95 97 98 99 99 99 99 90 88 81 78 74 71 69 67 67 67 67 69 71 70 72 69 69 72 73 72 72 69 68 65 61 61 61 63 64 63
95 97 98 98 99 99 99 99 97 89 88 85 81 80 79 79 78 78 79 82 83 85 85 84 82 83 84 83 81 83 80 78 77 76 70 65 62 63
96 97 98 96 96 97 98 99 99 99 96 93 91 91 90 91 92 91 91 90 89 87 83 80 80 80 81 81 87 93 93 93 87 85 83 78 71 65
94 97 95 78 78 67 79 93 95 95 96 96 95 94 93 92 91 89 87 84 77 69 66 64 63 64 66 69 79 91 96 93 91 90 89 86 82 78
80 95 85 78 75 75 71 70 88 91 89 88 87 86 86 84 83 79 74 70 71 70 67 67 69 71 72 73 71 78 93 93 90 88 86 87 87 84
65 82 87 80 78 76 75 67 62 82 92 89 88 86 83 80 76 72 72 70 69 68 67 67 67 69 73 75 80 84 88 92 93 88 88 91 89 87
52 65 80 83 80 75 70 67 66 55 68 91 85 83 81 77 74 71 68 67 68 69 70 69 69 70 70 69 72 77 81 85 87 89 91 90 90 88
48 50 63 72 77 78 75 65 58 51 53 66 84 85 83 80 77 74 72 69 66 65 67 66 67 68 71 70 69 70 72 75 78 83 85 84 84 86
56 50 50 61 69 74 77 74 67 56 49 52 58 61 77 83 80 78 77 75 74 72 71 71 71 70 68 66 67 68 68 65 66 68 70 70 75 81
56 58 56 54 60 72 78 78 75 73 60 55 50 48 47 53 56 58 64 67 66 65 66 68 69 70 71 72 71 71 67 66 65 62 62 66 67 68

GFSNE_prec_cthk_015.txt.gz
RH
53 53 45 40 42 44 46 54 68 70 62 63 75 81 86 84 78 72 65 55 51 50 49 42 43 60 74 80 78 81 77 69 60 51 50 49 48 50
46 47 43 40 42 46 49 48 48 49 51 54 52 69 72 84 91 86 78 71 59 52 50 56 49 52 60 69 71 79 86 77 76 68 60 54 49 46
45 51 51 47 45 45 45 44 42 45 44 36 35 48 60 65 79 86 85 77 70 65 58 66 67 56 58 70 74 91 95 90 83 74 61 52 50 46
51 54 53 50 47 44 41 37 37 40 45 42 39 34 36 43 62 72 78 77 71 67 63 73 88 76 75 73 84 92 97 94 92 87 80 67 56 49
55 54 49 43 40 48 55 56 57 60 63 60 49 42 46 44 40 47 53 62 69 69 66 70 94 97 87 75 82 83 97 97 90 88 87 82 70 60
52 46 42 49 60 60 60 61 67 72 74 75 73 70 62 57 50 38 35 37 46 62 69 72 90 95 97 93 86 97 92 97 95 92 89 83 80 75
44 42 52 62 70 72 74 78 82 81 84 86 84 84 81 74 64 53 40 33 30 43 61 74 88 94 96 98 91 97 98 97 96 92 88 86 83 77
41 47 63 70 76 85 92 94 96 95 92 92 92 94 89 83 76 65 50 39 32 32 53 67 78 91 96 93 97 97 98 96 93 91 89 83 73 70
42 62 71 81 89 93 96 99 99 99 98 90 91 96 90 90 83 70 56 45 38 34 49 58 63 72 89 96 95 95 95 91 92 87 81 80 75 66
55 71 83 89 94 95 97 98 98 96 97 89 91 97 87 83 80 70 59 45 38 34 44 54 57 55 66 77 83 89 93 91 87 81 72 68 67 64
67 82 90 94 95 98 98 98 98 96 92 91 91 93 94 82 79 72 61 51 43 37 41 55 54 54 50 53 63 69 70 81 74 69 63 59 57 54
74 89 93 95 98 98 99 99 98 94 89 90 95 85 79 77 74 66 57 50 46 41 40 52 53 57 57 55 47 52 57 62 59 53 50 46 43 43
76 89 94 97 98 99 99 99 99 91 89 83 84 86 80 72 63 55 52 47 43 38 42 53 53 57 60 59 60 54 48 47 49 48 45 43 42 41
75 89 95 97 99 98 98 99 99 94 89 82 80 76 75 72 69 65 62 60 58 55 61 60 54 52 53 55 54 56 58 58 54 51 50 51 51 49
69 89 94 91 82 71 86 98 99 98 91 88 87 81 80 78 78 76 74 73 72 73 74 71 68 65 61 61 60 59 57 55 53 52 54 58 59 59
56 86 92 76 76 74 71 90 95 98 99 96 91 89 88 88 88 87 86 84 83 84 84 83 81 79 78 78 79 78 78 79 75 72 69 65 63 62
41 70 82 76 74 77 74 67 86 94 93 96 97 97 97 96 95 94 93 93 92 89 87 84 80 77 75 76 79 82 84 87 91 89 84 82 78 76
38 46 72 82 79 77 74 69 61 85 93 91 90 90 89 89 88 86 84 80 75 72 72 70 70 71 71 70 70 67 71 80 86 93 93 89 86 83
45 39 49 68 80 80 76 70 65 55 84 90 89 88 86 84 82 80 76 76 76 74 71 69 69 71 72 72 75 75 75 80 85 93 90 91 90 88
51 46 42 48 62 76 79 74 61 57 55 77 91 86 84 81 78 75 75 75 74 73 73 72 71 70 69 70 72 73 77 80 82 86 88 87 87 86
51 52 49 47 48 61 74 78 75 67 54 56 66 88 90 85 81 76 74 72 71 71 70 69 68 69 70 70 70 68 70 72 73 76 82 85 85 86
50 50 54 54 52 51 57 72 78 76 72 61 50 49 57 77 86 82 81 79 76 73 71 70 71 69 69 66 63 65 66 65 64 65 67 68 71 76
51 50 49 49 50 52 57 62 73 80 80 76 68 55 45 42 46 52 56 61 68 69 69 70 70 70 70 72 72 73 71 69 68 64 60 61 63 65